• In Hungary
  • List of Countries
  • For 7 days
  • Water Temperature
  • Satellite Maps
  • Weather Map
  • News
  • Weather Widgets
  • user-avatar
    Login

    Hourly Weather Weiden

    Today, 18 February, Sunday

    Time Temperature Precipitation Wind Pressure Humidity
    00:00 -2°C° 0 mm 2 mps 731 mmHg 91%
    01:00 -3°C° 0 mm 2 mps 731 mmHg 92%
    02:00 -3°C° 0 mm 2 mps 732 mmHg 93%
    03:00 -3°C° 0 mm 2 mps 732 mmHg 93%
    04:00 -2°C° 0 mm 1 mps 732 mmHg 94%
    05:00 -2°C° 0 mm 1 mps 732 mmHg 94%
    06:00 -2°C° 0 mm 1 mps 733 mmHg 94%
    07:00 -2°C° 0 mm 1 mps 733 mmHg 95%
    08:00 -3°C° 0 mm 2 mps 733 mmHg 90%
    09:00 -2°C° 0 mm 2 mps 733 mmHg 85%
    10:00 +1°C° 0 mm 2 mps 734 mmHg 80%
    11:00 +1°C° 0 mm 2 mps 734 mmHg 77%
    12:00 +2°C° 0 mm 2 mps 734 mmHg 73%
    13:00 +3°C° 0 mm 2 mps 733 mmHg 69%
    14:00 +3°C° 0 mm 2 mps 733 mmHg 71%
    15:00 +3°C° 0 mm 2 mps 733 mmHg 72%
    16:00 +2°C° 0 mm 2 mps 733 mmHg 74%
    17:00 +1°C° 0 mm 2 mps 733 mmHg 80%
    18:00 -1°C° 0 mm 2 mps 732 mmHg 86%
    19:00 -3°C° 0 mm 2 mps 732 mmHg 92%
    20:00 -1°C° 0 mm 1 mps 732 mmHg 92%
    21:00 -1°C° 0 mm 1 mps 732 mmHg 92%
    22:00 -2°C° 0 mm 1 mps 732 mmHg 93%
    23:00 -2°C° 0 mm 1 mps 732 mmHg 92%

    Tomorrow, 19 February, Monday

    Time Temperature Precipitation Wind Pressure Humidity
    00:00 -2°C° 0 mm 1 mps 732 mmHg 92%
    01:00 -2°C° 0 mm 1 mps 732 mmHg 92%
    02:00 -2°C° 0 mm 1 mps 731 mmHg 92%
    03:00 -2°C° 0 mm 1 mps 731 mmHg 92%
    04:00 -2°C° 0 mm 1 mps 730 mmHg 91%
    05:00 -2°C° 0 mm 1 mps 730 mmHg 91%
    06:00 -3°C° 0 mm 1 mps 730 mmHg 92%
    07:00 -3°C° 0 mm 1 mps 730 mmHg 92%
    08:00 -1°C° 0 mm 1 mps 730 mmHg 85%
    09:00 -2°C° 0 mm 2 mps 730 mmHg 79%
    10:00 -1°C° 0 mm 2 mps 730 mmHg 73%
    11:00 +1°C° 0 mm 2 mps 729 mmHg 67%
    12:00 +2°C° 0 mm 2 mps 729 mmHg 62%
    13:00 +3°C° 0 mm 2 mps 729 mmHg 56%
    14:00 +3°C° 0 mm 2 mps 728 mmHg 58%
    15:00 +3°C° 0 mm 2 mps 728 mmHg 59%
    16:00 +3°C° 0 mm 2 mps 728 mmHg 61%
    17:00 +1°C° 0 mm 2 mps 728 mmHg 67%
    18:00 +1°C° 0 mm 1 mps 728 mmHg 73%
    19:00 -1°C° 0 mm 1 mps 727 mmHg 79%
    20:00 -1°C° 0 mm 1 mps 727 mmHg 81%
    21:00 -1°C° 0 mm 1 mps 727 mmHg 82%
    22:00 -1°C° 0 mm 1 mps 727 mmHg 83%
    23:00 -1°C° 0 mm 1 mps 727 mmHg 84%

    Day after tomorrow, 20 February, Tuesday

    Time Temperature Precipitation Wind Pressure Humidity
    00:00 -2°C° 0 mm 1 mps 727 mmHg 85%
    01:00 -3°C° 0 mm 0 mps 727 mmHg 86%
    02:00 -3°C° 0 mm 0 mps 726 mmHg 87%
    03:00 -3°C° 0 mm 0 mps 726 mmHg 87%
    04:00 -3°C° 0 mm 0 mps 726 mmHg 87%
    05:00 -3°C° 0 mm 0 mps 726 mmHg 88%
    06:00 -3°C° 0 mm 0 mps 726 mmHg 88%
    07:00 -3°C° 0 mm 0 mps 726 mmHg 89%
    08:00 -2°C° 0 mm 0 mps 726 mmHg 84%
    09:00 0°C° 0 mm 1 mps 726 mmHg 79%
    10:00 +1°C° 0 mm 1 mps 726 mmHg 74%
    11:00 +1°C° 0 mm 1 mps 726 mmHg 71%
    12:00 +2°C° 0 mm 1 mps 726 mmHg 67%
    13:00 +3°C° 0 mm 1 mps 726 mmHg 63%
    14:00 +3°C° 0 mm 1 mps 726 mmHg 64%
    15:00 +2°C° 0 mm 2 mps 726 mmHg 65%
    16:00 +2°C° 0 mm 2 mps 726 mmHg 66%
    17:00 -1°C° 0 mm 2 mps 726 mmHg 72%
    18:00 -2°C° 0 mm 2 mps 726 mmHg 77%
    19:00 -3°C° 0 mm 2 mps 726 mmHg 83%
    20:00 -3°C° 0 mm 2 mps 726 mmHg 84%
    21:00 -1°C° 0 mm 1 mps 727 mmHg 85%
    22:00 -1°C° 0 mm 1 mps 727 mmHg 86%
    23:00 -1°C° 0 mm 1 mps 727 mmHg 86%

    21 February, Wednesday

    Time Temperature Precipitation Wind Pressure Humidity
    00:00 -1°C° 0 mm 1 mps 727 mmHg 86%
    01:00 -2°C° 0 mm 1 mps 727 mmHg 86%
    02:00 -2°C° 0 mm 1 mps 727 mmHg 85%
    03:00 -2°C° 0 mm 1 mps 727 mmHg 84%
    04:00 -2°C° 0 mm 1 mps 727 mmHg 84%
    05:00 -4°C° 0 mm 2 mps 727 mmHg 83%
    06:00 -4°C° 0 mm 2 mps 727 mmHg 83%
    07:00 -4°C° 0 mm 2 mps 728 mmHg 83%
    08:00 -3°C° 0 mm 2 mps 728 mmHg 76%
    09:00 -2°C° 0 mm 2 mps 728 mmHg 70%
    10:00 -1°C° 0 mm 2 mps 728 mmHg 63%
    11:00 0°C° 0 mm 3 mps 728 mmHg 59%
    12:00 0°C° 0 mm 3 mps 727 mmHg 56%
    13:00 +1°C° 0 mm 3 mps 727 mmHg 52%
    14:00 +1°C° 0 mm 3 mps 727 mmHg 53%
    15:00 +1°C° 0 mm 3 mps 727 mmHg 55%
    16:00 0°C° 0 mm 4 mps 726 mmHg 57%
    17:00 0°C° 0 mm 3 mps 727 mmHg 61%
    18:00 -1°C° 0 mm 3 mps 727 mmHg 66%
    19:00 -2°C° 0 mm 3 mps 727 mmHg 71%
    20:00 -2°C° 0 mm 3 mps 727 mmHg 72%
    21:00 -4°C° 0 mm 4 mps 727 mmHg 73%
    22:00 -4°C° 0 mm 4 mps 727 mmHg 74%
    23:00 -4°C° 0 mm 4 mps 727 mmHg 76%

    22 February, Thursday

    Time Temperature Precipitation Wind Pressure Humidity
    00:00 -5°C° 0 mm 4 mps 726 mmHg 77%
    01:00 -5°C° 0 mm 4 mps 726 mmHg 79%
    02:00 -5°C° 0 mm 4 mps 726 mmHg 79%
    03:00 -5°C° 0 mm 4 mps 726 mmHg 80%
    04:00 -5°C° 0 mm 4 mps 725 mmHg 80%
    05:00 -7°C° 0 mm 4 mps 725 mmHg 79%
    06:00 -7°C° 0 mm 4 mps 725 mmHg 79%
    07:00 -7°C° 0 mm 4 mps 725 mmHg 78%
    08:00 -6°C° 0 mm 5 mps 725 mmHg 75%
    09:00 -6°C° 0 mm 5 mps 725 mmHg 71%
    10:00 -5°C° 0 mm 5 mps 725 mmHg 68%
    11:00 -4°C° 0 mm 5 mps 724 mmHg 64%
    12:00 -2°C° 0 mm 5 mps 724 mmHg 60%
    13:00 -3°C° 0 mm 6 mps 724 mmHg 56%
    14:00 -3°C° 0 mm 6 mps 723 mmHg 57%
    15:00 -3°C° 0 mm 6 mps 723 mmHg 59%
    16:00 -3°C° 0 mm 6 mps 723 mmHg 61%
    17:00 -4°C° 0.1 mm 5 mps 723 mmHg 65%
    18:00 -4°C° 0.1 mm 5 mps 723 mmHg 70%
    19:00 -5°C° 0.1 mm 5 mps 723 mmHg 75%
    20:00 -5°C° 0.2 mm 5 mps 723 mmHg 77%
    21:00 -5°C° 0.2 mm 5 mps 723 mmHg 78%
    22:00 -5°C° 0.2 mm 5 mps 723 mmHg 80%
    23:00 -5°C° 0.2 mm 5 mps 723 mmHg 80%

    23 February, Friday

    Time Temperature Precipitation Wind Pressure Humidity
    00:00 -6°C° 0.2 mm 5 mps 723 mmHg 80%
    01:00 -5°C° 0.2 mm 4 mps 723 mmHg 81%
    02:00 -5°C° 0.1 mm 4 mps 723 mmHg 80%
    03:00 -5°C° 0.1 mm 4 mps 723 mmHg 80%
    04:00 -5°C° 0.1 mm 4 mps 723 mmHg 80%
    05:00 -5°C° 0 mm 4 mps 723 mmHg 79%
    06:00 -7°C° 0 mm 4 mps 723 mmHg 79%
    07:00 -7°C° 0 mm 4 mps 724 mmHg 79%
    08:00 -5°C° 0 mm 4 mps 724 mmHg 74%
    09:00 -5°C° 0 mm 4 mps 724 mmHg 70%
    10:00 -6°C° 0 mm 5 mps 725 mmHg 66%
    11:00 -4°C° 0 mm 4 mps 725 mmHg 61%
    12:00 -3°C° 0 mm 4 mps 725 mmHg 57%
    13:00 -3°C° 0 mm 4 mps 725 mmHg 52%
    14:00 -3°C° 0 mm 4 mps 725 mmHg 53%
    15:00 -4°C° 0 mm 5 mps 725 mmHg 55%
    16:00 -5°C° 0 mm 5 mps 725 mmHg 56%
    17:00 -5°C° 0 mm 4 mps 725 mmHg 58%
    18:00 -7°C° 0 mm 4 mps 726 mmHg 60%
    19:00 -8°C° 0 mm 4 mps 726 mmHg 62%
    20:00 -8°C° 0 mm 4 mps 726 mmHg 62%
    21:00 -8°C° 0 mm 3 mps 727 mmHg 62%
    22:00 -8°C° 0 mm 3 mps 727 mmHg 62%
    23:00 -9°C° 0 mm 3 mps 727 mmHg 63%
    Show more